Change the Weather History Date:

Wednesday, January 23, 2013

  Actual Average (KDFW) Record (KDFW)
Temperature  
Mean Temperature 59 °F 46 °F  
Max Temperature 71 °F 57 °F 88 °F (1943)
Min Temperature 47 °F 36 °F 9 °F (1966)
Degree Days  
Heating Degree Days 6 19  
Month to date heating degree days 448  
Since 1 July heating degree days 1360  
Cooling Degree Days 0 0  
Month to date cooling degree days 0  
Year to date cooling degree days 0  
Growing Degree Days 9 (Base 50)    
Moisture  
Dew Point 51 °F    
Average Humidity 77    
Maximum Humidity 95    
Minimum Humidity 55    
Precipitation  
Precipitation 0.00 in 0.08 in 1.47 in (1938)
Month to date precipitation 1.51  
Year to date precipitation 1.51  
Snow  
Snow 0.00 in 0.00 in 1.00 in (1926)
Month to date snowfall 0.2  
Since 1 July snowfall 0.5  
Snow Depth -    
Sea Level Pressure  
Sea Level Pressure 30.20 in    
Wind  
Wind Speed 9 mph (SSW)    
Max Wind Speed 18 mph    
Max Gust Speed 26 mph    
Visibility 10 miles    
Events      
T = Trace of Precipitation, MM = Missing Value Source: NWS Daily Summary

Daily Weather History Graph

Daily Weather History Graph

Search for Another Location

Airport or City:

Trip Planner

Search our weather history database for the weather conditions in past years. The results will help you decide how hot, cold, wet, or windy it might be!

Date:

Astronomy

Jan. 23, 2013 Rise Set
Actual Time 7:25 AM CST 5:49 PM CST
Civil Twilight 6:59 AM CST 6:16 PM CST
Nautical Twilight 6:29 AM CST 6:46 PM CST
Astronomical Twilight 6:00 AM CST 7:15 PM CST
Moon 3:03 PM CST (1/23) 4:35 AM CST (1/23)
Length of Visible Light 11h 16m
Length of Day
10h 24m
Waxing Gibbous, 89% of the Moon is Illuminated
Jan 23
Waxing Gibbous
Jan 26
Full
Feb 3
Last Quarter
Feb 10
New
Feb 17
First Quarter

Hourly Weather History & Observations

Time (CST) Temp. Dew Point Humidity Pressure Visibility Wind Dir Wind Speed Gust Speed Precip Events Conditions
12:15 AM 52.0 °F 45.9 °F 80% 30.21 in 10.0 mi SSE 5.8 mph - N/A   Clear
12:35 AM 51.3 °F 45.7 °F 81% 30.20 in 10.0 mi SSE 4.6 mph - N/A   Clear
12:55 AM 51.8 °F 46.0 °F 81% 30.20 in 10.0 mi SSE 4.6 mph - N/A   Clear
1:35 AM 50.9 °F 46.4 °F 85% 30.21 in 10.0 mi South 6.9 mph - N/A   Clear
1:55 AM 50.5 °F 46.4 °F 86% 30.21 in 10.0 mi South 6.9 mph - N/A   Clear
2:15 AM 50.4 °F 46.6 °F 87% 30.21 in 10.0 mi South 8.1 mph - N/A   Clear
2:35 AM 50.7 °F 47.3 °F 88% 30.21 in 10.0 mi South 9.2 mph - N/A   Clear
2:55 AM 51.3 °F 47.7 °F 87% 30.21 in 10.0 mi South 9.2 mph - N/A   Clear
4:15 AM 51.8 °F 47.8 °F 86% 30.23 in 10.0 mi SSW 6.9 mph - N/A   Clear
4:35 AM 50.9 °F 47.5 °F 88% 30.22 in 10.0 mi SSW 8.1 mph - N/A   Scattered Clouds
5:15 AM 47.8 °F 46.0 °F 93% 30.24 in 10.0 mi South 6.9 mph - N/A   Clear
5:35 AM 48.4 °F 46.8 °F 94% 30.23 in 10.0 mi South 10.4 mph - N/A   Scattered Clouds
5:55 AM 49.1 °F 46.9 °F 92% 30.23 in 10.0 mi SSW 10.4 mph - N/A   Mostly Cloudy
6:15 AM 49.6 °F 46.9 °F 90% 30.23 in 10.0 mi SSW 9.2 mph - N/A   Scattered Clouds
6:35 AM 49.5 °F 46.9 °F 91% 30.23 in 10.0 mi SSW 9.2 mph - N/A   Clear
6:55 AM 48.6 °F 46.4 °F 92% 30.24 in 10.0 mi SSW 6.9 mph - N/A   Clear
7:15 AM 47.7 °F 45.9 °F 93% 30.25 in 10.0 mi South 6.9 mph - N/A   Scattered Clouds
7:35 AM 47.5 °F 46.2 °F 95% 30.25 in 7.0 mi South 8.1 mph - N/A   Scattered Clouds
7:55 AM 48.2 °F 46.8 °F 95% 30.25 in 7.0 mi South 6.9 mph - N/A   Clear
8:15 AM 48.6 °F 47.1 °F 95% 30.25 in 7.0 mi SSW 6.9 mph - N/A   Clear
8:35 AM 50.9 °F 48.2 °F 90% 30.25 in 10.0 mi SSW 9.2 mph - N/A   Scattered Clouds
8:55 AM 51.8 °F 49.1 °F 90% 30.26 in 10.0 mi SSW 8.1 mph - N/A   Overcast
9:15 AM 52.5 °F 49.5 °F 89% 30.26 in 10.0 mi SSW 9.2 mph - N/A   Mostly Cloudy
9:35 AM 54.9 °F 50.7 °F 86% 30.25 in 10.0 mi SSW 12.7 mph 19.6 mph N/A   Scattered Clouds
9:55 AM 56.5 °F 51.3 °F 83% 30.27 in 10.0 mi SSW 12.7 mph 16.1 mph N/A   Clear
10:15 AM 58.5 °F 51.8 °F 79% 30.27 in 10.0 mi SSW 17.3 mph 20.7 mph N/A   Clear
11:15 AM 63.7 °F 52.7 °F 67% 30.27 in 10.0 mi SSW 18.4 mph 23.0 mph N/A   Clear
11:35 AM 65.3 °F 53.1 °F 65% 30.26 in 10.0 mi SSW 17.3 mph 21.9 mph N/A   Clear
11:55 AM 66.4 °F 53.1 °F 62% 30.25 in 10.0 mi SW 16.1 mph 26.5 mph N/A   Clear
12:15 PM 67.8 °F 53.6 °F 60% 30.23 in 10.0 mi SSW 16.1 mph 21.9 mph N/A   Clear
12:35 PM 68.5 °F 53.4 °F 58% 30.23 in 10.0 mi SSW 16.1 mph 23.0 mph N/A   Clear
12:55 PM 69.8 °F 53.8 °F 57% 30.23 in 10.0 mi SW 12.7 mph 20.7 mph N/A   Clear
1:15 PM 70.0 °F 53.8 °F 56% 30.21 in 10.0 mi SSW 17.3 mph 24.2 mph N/A   Clear
1:55 PM 70.7 °F 54.0 °F 55% 30.19 in 10.0 mi SSW 15.0 mph 23.0 mph N/A   Clear
2:15 PM 70.9 °F 54.5 °F 56% 30.18 in 10.0 mi SW 15.0 mph 21.9 mph N/A   Clear
2:35 PM 71.4 °F 54.7 °F 55% 30.17 in 10.0 mi SSW 16.1 mph 21.9 mph N/A   Clear
2:55 PM 70.9 °F 54.3 °F 56% 30.17 in 10.0 mi SSW 13.8 mph 24.2 mph N/A   Clear
3:35 PM 70.9 °F 54.0 °F 55% 30.16 in 10.0 mi SW 11.5 mph 25.3 mph N/A   Clear
3:55 PM 70.9 °F 54.0 °F 55% 30.16 in 10.0 mi SSW 17.3 mph 23.0 mph N/A   Clear
4:15 PM 70.7 °F 54.5 °F 56% 30.16 in 10.0 mi South 12.7 mph 24.2 mph N/A   Clear
4:35 PM 70.7 °F 54.7 °F 57% 30.16 in 10.0 mi SSW 11.5 mph 20.7 mph N/A   Clear
4:55 PM 69.8 °F 54.7 °F 59% 30.15 in 10.0 mi South 15.0 mph 23.0 mph N/A   Clear
5:15 PM 69.1 °F 54.9 °F 60% 30.15 in 10.0 mi SSW 12.7 mph 23.0 mph N/A   Clear
5:35 PM 68.0 °F 54.7 °F 62% 30.14 in 10.0 mi SSW 13.8 mph 21.9 mph N/A   Clear
6:15 PM 65.3 °F 54.5 °F 68% 30.14 in 10.0 mi SSW 10.4 mph 17.3 mph N/A   Clear
6:55 PM 61.5 °F 54.0 °F 76% 30.14 in 10.0 mi South 8.1 mph - N/A   Clear
7:15 PM 62.1 °F 54.7 °F 77% 30.13 in 10.0 mi South 9.2 mph - N/A   Clear
7:35 PM 61.9 °F 54.7 °F 77% 30.13 in 10.0 mi South 8.1 mph - N/A   Clear
7:55 PM 61.7 °F 54.7 °F 78% 30.14 in 10.0 mi South 8.1 mph - N/A   Clear
8:15 PM 61.3 °F 54.7 °F 79% 30.14 in 10.0 mi South 5.8 mph - N/A   Clear
8:35 PM 60.3 °F 54.1 °F 80% 30.15 in 10.0 mi South 8.1 mph - N/A   Clear
8:55 PM 59.2 °F 54.0 °F 83% 30.15 in 10.0 mi South 6.9 mph - N/A   Clear
9:15 PM 59.4 °F 54.0 °F 82% 30.16 in 10.0 mi South 5.8 mph - N/A   Clear
9:35 PM 58.8 °F 53.8 °F 83% 30.16 in 10.0 mi South 5.8 mph - N/A   Clear
9:55 PM 58.8 °F 54.5 °F 86% 30.15 in 10.0 mi SSW 12.7 mph - N/A   Clear
10:15 PM 59.4 °F 54.5 °F 84% 30.15 in 10.0 mi SSW 11.5 mph - N/A   Clear
10:35 PM 58.6 °F 54.1 °F 85% 30.15 in 10.0 mi SSW 11.5 mph - N/A   Clear
10:55 PM 59.0 °F 54.3 °F 84% 30.15 in 10.0 mi South 11.5 mph - N/A   Clear
11:15 PM 58.5 °F 54.1 °F 86% 30.14 in 10.0 mi South 11.5 mph - N/A   Clear
11:35 PM 58.3 °F 54.1 °F 86% 30.15 in 10.0 mi South 8.1 mph - N/A   Clear
11:55 PM 58.1 °F 54.0 °F 86% 30.15 in 10.0 mi South 9.2 mph - N/A   Clear